Вернуться в каталог

STARLINK-2160

АктивенСвязьVLEO
NORAD 47746·PAYLOAD·🇺🇸 United States

Запущен Mar 4, 2021 с Cape Canaveral Space Force Station

Loading…

Ближайшие Пролёты (ближайшие 24 часа)

TLE

СвежийSource: CelesTrak SupGP

Эпоха: Sep 14, 2026, 21:37 UTC

1 47746C 21017AA  26257.90118056  .00092286  00000+0  54678-3 0  2577
2 47746  53.1536  17.0635 0005668 337.0920 351.3882 15.77305131    18

Отслеживайте STARLINK-2160 в реальном времени с AllMySat

Download on the App Store